TimePST,TemperatureF,Dew PointF,Humidity,Sea Level PressureIn,VisibilityMPH,Wind Direction,Wind SpeedMPH,Gust SpeedMPH,PrecipitationIn,Events,Conditions,WindDirDegrees,DateUTC
12:15 AM,46.4,37.4,71,30.06,5.0,Calm,Calm,-,N/A,,Clear,0,2013-11-29 08:15:00
12:35 AM,46.4,37.4,71,30.06,6.0,NW,3.5,-,N/A,,Clear,320,2013-11-29 08:35:00
12:55 AM,44.6,35.6,71,30.06,5.0,Calm,Calm,-,N/A,,Clear,0,2013-11-29 08:55:00
1:15 AM,44.6,35.6,71,30.06,5.0,Calm,Calm,-,N/A,,Clear,0,2013-11-29 09:15:00
1:35 AM,44.6,37.4,76,30.06,5.0,Calm,Calm,-,N/A,,Clear,0,2013-11-29 09:35:00
1:55 AM,44.6,35.6,71,30.07,5.0,Calm,Calm,-,N/A,,Clear,0,2013-11-29 09:55:00
2:15 AM,42.8,35.6,76,30.08,5.0,Calm,Calm,-,N/A,,Clear,0,2013-11-29 10:15:00
2:35 AM,42.8,33.8,70,30.08,5.0,Calm,Calm,-,N/A,,Clear,0,2013-11-29 10:35:00
2:55 AM,42.8,35.6,76,30.09,4.0,Calm,Calm,-,N/A,,Clear,0,2013-11-29 10:55:00
3:15 AM,42.8,35.6,76,30.08,4.0,Calm,Calm,-,N/A,,Clear,0,2013-11-29 11:15:00
3:35 AM,42.8,35.6,76,30.09,4.0,SE,5.8,-,N/A,,Clear,140,2013-11-29 11:35:00
3:55 AM,41.0,35.6,81,30.08,3.0,SE,3.5,-,N/A,,Clear,130,2013-11-29 11:55:00
4:15 AM,41.0,35.6,81,30.08,4.0,Calm,Calm,-,N/A,,Clear,0,2013-11-29 12:15:00
4:35 AM,41.0,35.6,81,30.09,3.0,ESE,3.5,-,N/A,,Clear,120,2013-11-29 12:35:00
4:55 AM,39.2,33.8,81,30.10,4.0,SE,3.5,-,N/A,,Clear,130,2013-11-29 12:55:00
5:15 AM,39.2,33.8,81,30.11,4.0,SE,3.5,-,N/A,,Clear,140,2013-11-29 13:15:00
5:35 AM,41.0,35.6,81,30.11,3.0,Calm,Calm,-,N/A,,Clear,0,2013-11-29 13:35:00
5:55 AM,39.2,35.6,87,30.11,2.5,ESE,3.5,-,N/A,,Clear,110,2013-11-29 13:55:00
6:15 AM,39.2,32.0,75,30.12,3.0,ESE,5.8,-,N/A,,Clear,120,2013-11-29 14:15:00
6:35 AM,39.2,33.8,81,30.14,1.8,SE,6.9,-,N/A,,Clear,130,2013-11-29 14:35:00
6:55 AM,41.0,35.6,81,30.14,1.5,ESE,6.9,-,N/A,,Clear,120,2013-11-29 14:55:00
7:15 AM,41.0,35.6,81,30.15,1.5,Calm,Calm,-,N/A,,Clear,0,2013-11-29 15:15:00
7:35 AM,41.0,35.6,81,30.15,1.5,Calm,Calm,-,N/A,,Clear,0,2013-11-29 15:35:00
7:55 AM,42.8,37.4,81,30.16,2.0,Calm,Calm,-,N/A,,Clear,0,2013-11-29 15:55:00
8:15 AM,42.8,37.4,81,30.17,1.8,SE,5.8,-,N/A,,Clear,140,2013-11-29 16:15:00
8:35 AM,42.8,37.4,81,30.17,2.0,SSE,4.6,-,N/A,,Clear,150,2013-11-29 16:35:00
8:55 AM,44.6,39.2,81,30.18,2.5,ESE,4.6,-,N/A,,Clear,120,2013-11-29 16:55:00
9:15 AM,46.4,39.2,76,30.19,3.0,SE,8.1,-,N/A,,Clear,140,2013-11-29 17:15:00
9:35 AM,48.2,42.8,82,30.19,3.0,SE,5.8,-,N/A,,Clear,140,2013-11-29 17:35:00
9:55 AM,48.2,42.8,82,30.19,3.0,SSE,5.8,-,N/A,,Clear,150,2013-11-29 17:55:00
10:15 AM,50.0,42.8,76,30.19,4.0,SSE,3.5,-,N/A,,Clear,150,2013-11-29 18:15:00
10:35 AM,51.8,42.8,71,30.19,4.0,South,3.5,-,N/A,,Clear,170,2013-11-29 18:35:00
10:55 AM,53.6,44.6,72,30.18,5.0,SSE,4.6,-,N/A,,Clear,150,2013-11-29 18:55:00
11:15 AM,53.6,42.8,67,30.17,4.0,Calm,Calm,-,N/A,,Clear,0,2013-11-29 19:15:00
11:35 AM,55.4,44.6,67,30.16,4.0,Calm,Calm,-,N/A,,Clear,0,2013-11-29 19:35:00
11:55 AM,55.4,44.6,67,30.16,5.0,Calm,Calm,-,N/A,,Clear,0,2013-11-29 19:55:00
12:15 PM,55.4,44.6,67,30.15,5.0,Calm,Calm,-,N/A,,Clear,0,2013-11-29 20:15:00
12:35 PM,59.0,44.6,59,30.15,5.0,Calm,Calm,-,N/A,,Clear,0,2013-11-29 20:35:00
12:55 PM,60.8,44.6,55,30.14,5.0,Calm,Calm,-,N/A,,Clear,0,2013-11-29 20:55:00
1:15 PM,60.8,42.8,52,30.13,5.0,Calm,Calm,-,N/A,,Clear,0,2013-11-29 21:15:00
1:35 PM,62.6,46.4,55,30.13,5.0,West,4.6,-,N/A,,Clear,270,2013-11-29 21:35:00
1:55 PM,64.4,44.6,49,30.12,6.0,WSW,3.5,-,N/A,,Clear,250,2013-11-29 21:55:00
2:15 PM,64.4,44.6,49,30.12,6.0,Calm,Calm,-,N/A,,Clear,0,2013-11-29 22:15:00
2:35 PM,64.4,42.8,45,30.12,6.0,Calm,Calm,-,N/A,,Clear,0,2013-11-29 22:35:00
2:55 PM,64.4,44.6,49,30.12,6.0,SW,4.6,-,N/A,,Clear,230,2013-11-29 22:55:00
3:15 PM,62.6,46.4,55,30.12,5.0,SW,3.5,-,N/A,,Clear,230,2013-11-29 23:15:00
3:35 PM,62.6,46.4,55,30.12,5.0,Calm,Calm,-,N/A,,Clear,0,2013-11-29 23:35:00
3:55 PM,60.8,46.4,59,30.12,5.0,South,3.5,-,N/A,,Clear,190,2013-11-29 23:55:00
4:15 PM,60.8,46.4,59,30.12,5.0,SW,3.5,-,N/A,,Clear,220,2013-11-30 00:15:00
4:35 PM,59.0,44.6,59,30.13,4.0,South,3.5,-,N/A,,Clear,180,2013-11-30 00:35:00
4:55 PM,57.2,44.6,63,30.13,4.0,Calm,Calm,-,N/A,,Clear,0,2013-11-30 00:55:00
5:15 PM,55.4,44.6,67,30.14,5.0,Calm,Calm,-,N/A,,Clear,0,2013-11-30 01:15:00
5:35 PM,55.4,44.6,67,30.13,5.0,Calm,Calm,-,N/A,,Clear,0,2013-11-30 01:35:00
5:55 PM,53.6,42.8,67,30.15,5.0,Calm,Calm,-,N/A,,Clear,0,2013-11-30 01:55:00
6:15 PM,53.6,42.8,67,30.16,5.0,Calm,Calm,-,N/A,,Clear,0,2013-11-30 02:15:00
6:35 PM,50.0,39.2,66,30.17,5.0,Calm,Calm,-,N/A,,Clear,0,2013-11-30 02:35:00
6:55 PM,51.8,42.8,71,30.17,5.0,Calm,Calm,-,N/A,,Clear,0,2013-11-30 02:55:00
7:15 PM,50.0,41.0,71,30.18,3.0,East,3.5,-,N/A,,Clear,80,2013-11-30 03:15:00
7:35 PM,48.2,41.0,76,30.19,4.0,Calm,Calm,-,N/A,,Clear,0,2013-11-30 03:35:00
7:55 PM,48.2,41.0,76,30.20,4.0,Calm,Calm,-,N/A,,Clear,0,2013-11-30 03:55:00
8:15 PM,48.2,41.0,76,30.20,4.0,Calm,Calm,-,N/A,,Clear,0,2013-11-30 04:15:00
8:35 PM,48.2,41.0,76,30.21,3.0,Calm,Calm,-,N/A,,Clear,0,2013-11-30 04:35:00
8:55 PM,48.2,39.2,71,30.22,3.0,Calm,Calm,-,N/A,,Clear,0,2013-11-30 04:55:00
9:15 PM,48.2,39.2,71,30.22,4.0,Calm,Calm,-,N/A,,Clear,0,2013-11-30 05:15:00
9:35 PM,46.4,39.2,76,30.22,3.0,Calm,Calm,-,N/A,,Clear,0,2013-11-30 05:35:00
9:55 PM,46.4,39.2,76,30.22,3.0,East,3.5,-,N/A,,Clear,80,2013-11-30 05:55:00
10:15 PM,44.6,37.4,76,30.22,3.0,Calm,Calm,-,N/A,,Clear,0,2013-11-30 06:15:00
10:35 PM,44.6,37.4,76,30.22,3.0,Calm,Calm,-,N/A,,Clear,0,2013-11-30 06:35:00
10:55 PM,44.6,35.6,71,30.22,3.0,Calm,Calm,-,N/A,,Clear,0,2013-11-30 06:55:00
11:15 PM,44.6,37.4,76,30.22,4.0,Calm,Calm,-,N/A,,Clear,0,2013-11-30 07:15:00
11:35 PM,44.6,39.2,81,30.22,4.0,Calm,Calm,-,N/A,,Clear,0,2013-11-30 07:35:00
11:55 PM,46.4,37.4,71,30.22,4.0,Calm,Calm,-,N/A,,Clear,0,2013-11-30 07:55:00